TimeEDT,TemperatureF,Dew PointF,Humidity,Sea Level PressureIn,VisibilityMPH,Wind Direction,Wind SpeedMPH,Gust SpeedMPH,PrecipitationIn,Events,Conditions,WindDirDegrees,DateUTC
12:16 AM,62.4,61.3,96,29.94,10.0,ESE,4.6,-,N/A,,Overcast,120,2013-09-07 04:16:00
12:35 AM,62.6,61.3,96,29.94,10.0,SE,3.5,-,N/A,,Overcast,130,2013-09-07 04:35:00
12:55 AM,63.0,61.2,94,29.93,10.0,SSE,8.1,-,N/A,,Overcast,160,2013-09-07 04:55:00
1:16 AM,62.6,61.3,96,29.93,7.0,Calm,Calm,-,0.02,Rain,Light Rain,0,2013-09-07 05:16:00
1:35 AM,62.2,61.3,97,29.93,7.0,NE,4.6,-,0.03,Rain,Light Rain,50,2013-09-07 05:35:00
1:55 AM,61.2,60.4,97,29.92,7.0,ESE,3.5,-,0.04,Rain,Light Rain,110,2013-09-07 05:55:00
2:15 AM,61.2,60.4,97,29.91,3.0,ESE,3.5,-,0.05,Rain,Rain,110,2013-09-07 06:15:00
2:35 AM,60.4,59.9,98,29.92,3.0,Calm,Calm,-,0.12,Rain,Heavy Rain,0,2013-09-07 06:35:00
2:55 AM,61.3,60.8,98,29.90,4.0,WSW,8.1,-,0.25,Rain,Heavy Rain,250,2013-09-07 06:55:00
3:15 AM,61.0,60.4,98,29.90,4.0,NE,6.9,-,0.01,Rain,Light Rain,50,2013-09-07 07:15:00
3:35 AM,60.8,60.6,99,29.89,7.0,Calm,Calm,-,0.02,,Overcast,0,2013-09-07 07:35:00
3:55 AM,61.7,61.0,97,29.88,7.0,South,5.8,-,0.02,,Overcast,170,2013-09-07 07:55:00
4:15 AM,61.7,61.0,97,29.90,2.5,NE,5.8,-,0.02,Rain,Light Rain,40,2013-09-07 08:15:00
4:35 AM,61.7,61.2,98,29.88,7.0,Calm,Calm,-,0.02,,Overcast,0,2013-09-07 08:35:00
4:55 AM,62.6,61.9,97,29.88,7.0,SW,8.1,-,0.02,,Overcast,220,2013-09-07 08:55:00
5:15 AM,65.8,64.4,95,29.87,10.0,SW,8.1,-,N/A,,Overcast,230,2013-09-07 09:15:00
5:35 AM,65.3,64.2,96,29.87,7.0,SW,9.2,-,0.09,Rain,Light Rain,230,2013-09-07 09:35:00
5:55 AM,66.2,65.3,97,29.86,10.0,SW,10.4,-,0.09,,Overcast,220,2013-09-07 09:55:00
6:15 AM,67.1,65.7,95,29.86,7.0,SW,9.2,-,N/A,Rain,Light Rain,220,2013-09-07 10:15:00
6:35 AM,67.1,65.8,96,29.86,7.0,SW,8.1,-,N/A,,Mostly Cloudy,230,2013-09-07 10:35:00
6:55 AM,66.6,65.8,98,29.87,5.0,WSW,11.5,-,N/A,,Mostly Cloudy,240,2013-09-07 10:55:00
7:15 AM,66.7,66.2,98,29.87,5.0,WSW,9.2,-,N/A,,Overcast,240,2013-09-07 11:15:00
7:35 AM,67.1,66.4,98,29.87,5.0,WSW,5.8,-,N/A,,Overcast,250,2013-09-07 11:35:00
7:55 AM,67.1,66.2,97,29.87,5.0,West,5.8,-,N/A,,Overcast,270,2013-09-07 11:55:00
8:15 AM,67.1,66.2,97,29.87,4.0,West,3.5,-,N/A,,Overcast,260,2013-09-07 12:15:00
8:35 AM,67.1,66.4,98,29.87,4.0,West,4.6,-,N/A,,Overcast,260,2013-09-07 12:35:00
8:55 AM,67.3,66.6,98,29.87,4.0,WSW,5.8,-,N/A,,Overcast,250,2013-09-07 12:55:00
9:15 AM,67.5,66.7,98,29.87,4.0,WSW,5.8,-,N/A,,Overcast,240,2013-09-07 13:15:00
9:35 AM,67.8,67.1,98,29.86,4.0,WSW,5.8,-,N/A,,Overcast,240,2013-09-07 13:35:00
9:55 AM,68.0,67.3,98,29.86,3.0,WSW,6.9,-,N/A,,Overcast,250,2013-09-07 13:55:00
10:15 AM,68.0,67.3,98,29.86,4.0,WSW,5.8,-,N/A,,Overcast,240,2013-09-07 14:15:00
10:35 AM,68.0,67.1,97,29.88,5.0,WSW,4.6,-,N/A,,Overcast,250,2013-09-07 14:35:00
10:55 AM,68.5,67.5,96,29.87,7.0,WSW,6.9,-,N/A,,Overcast,240,2013-09-07 14:55:00
11:15 AM,68.9,67.5,95,29.87,7.0,WSW,10.4,-,N/A,,Overcast,240,2013-09-07 15:15:00
11:35 AM,69.8,68.0,94,29.88,7.0,WSW,9.2,-,N/A,,Overcast,250,2013-09-07 15:35:00
11:55 AM,69.8,68.0,94,29.88,7.0,WSW,5.8,-,N/A,,Overcast,250,2013-09-07 15:55:00
12:15 PM,70.0,68.0,93,29.88,7.0,West,5.8,-,N/A,,Overcast,260,2013-09-07 16:15:00
12:35 PM,70.7,67.6,90,29.88,10.0,West,6.9,-,N/A,,Overcast,270,2013-09-07 16:35:00
12:55 PM,71.6,67.8,88,29.88,10.0,West,6.9,-,N/A,,Overcast,260,2013-09-07 16:55:00
1:15 PM,71.8,67.6,87,29.87,10.0,WNW,5.8,-,N/A,,Overcast,290,2013-09-07 17:15:00
1:35 PM,72.3,68.0,86,29.87,10.0,West,3.5,-,N/A,,Mostly Cloudy,280,2013-09-07 17:35:00
1:55 PM,73.0,68.0,84,29.87,10.0,NNE,3.5,-,N/A,,Mostly Cloudy,30,2013-09-07 17:55:00
2:15 PM,73.4,68.7,85,29.87,10.0,SSW,4.6,-,N/A,,Overcast,200,2013-09-07 18:15:00
2:35 PM,72.1,67.6,86,29.87,10.0,Calm,Calm,-,N/A,,Overcast,0,2013-09-07 18:35:00
2:55 PM,71.6,67.5,87,29.88,10.0,Calm,Calm,-,N/A,,Overcast,0,2013-09-07 18:55:00
3:15 PM,72.5,68.7,88,29.88,10.0,NNE,4.6,-,N/A,,Overcast,30,2013-09-07 19:15:00
3:35 PM,72.9,68.9,87,29.88,10.0,NE,6.9,-,N/A,,Overcast,40,2013-09-07 19:35:00
3:55 PM,73.0,68.9,87,29.88,10.0,ENE,8.1,-,N/A,,Mostly Cloudy,60,2013-09-07 19:55:00
4:15 PM,70.9,67.1,88,29.88,10.0,ENE,6.9,-,N/A,,Mostly Cloudy,70,2013-09-07 20:15:00
4:35 PM,68.2,66.4,94,29.89,5.0,ENE,5.8,-,N/A,,Overcast,70,2013-09-07 20:35:00
4:55 PM,67.1,65.5,95,29.89,5.0,ENE,5.8,-,N/A,,Overcast,70,2013-09-07 20:55:00
5:15 PM,67.6,66.2,95,29.89,5.0,Calm,Calm,-,N/A,,Overcast,0,2013-09-07 21:15:00
5:35 PM,68.4,66.4,93,29.90,5.0,NE,3.5,-,N/A,,Overcast,50,2013-09-07 21:35:00
5:55 PM,68.5,66.6,93,29.91,5.0,NE,3.5,-,N/A,,Overcast,50,2013-09-07 21:55:00
6:15 PM,68.5,66.4,93,29.92,7.0,Calm,Calm,-,N/A,,Overcast,0,2013-09-07 22:15:00
6:35 PM,69.1,66.6,92,29.92,7.0,Calm,Calm,-,N/A,,Overcast,0,2013-09-07 22:35:00
6:55 PM,69.6,66.7,91,29.93,7.0,Calm,Calm,-,N/A,,Overcast,0,2013-09-07 22:55:00
7:15 PM,69.1,66.9,93,29.93,7.0,Calm,Calm,-,N/A,,Mostly Cloudy,0,2013-09-07 23:15:00
7:35 PM,67.6,66.4,96,29.93,4.0,NW,3.5,-,N/A,,Scattered Clouds,320,2013-09-07 23:35:00
7:55 PM,67.6,66.6,96,29.93,4.0,West,5.8,-,N/A,,Overcast,280,2013-09-07 23:55:00
8:15 PM,67.1,66.2,97,29.95,4.0,NW,5.8,-,N/A,,Overcast,320,2013-09-08 00:15:00
8:35 PM,67.1,66.2,97,29.96,5.0,NNW,6.9,-,N/A,,Overcast,340,2013-09-08 00:35:00
8:55 PM,67.1,65.7,95,29.96,10.0,NNW,6.9,-,N/A,,Overcast,340,2013-09-08 00:55:00
9:15 PM,67.1,64.8,92,29.97,10.0,NNW,4.6,-,N/A,,Overcast,330,2013-09-08 01:15:00
9:35 PM,66.4,64.0,92,29.97,10.0,North,10.4,-,N/A,,Overcast,360,2013-09-08 01:35:00
9:55 PM,65.3,63.3,93,29.99,10.0,North,12.7,-,N/A,,Mostly Cloudy,360,2013-09-08 01:55:00
10:15 PM,65.1,63.0,93,30.00,10.0,North,10.4,17.3,N/A,,Mostly Cloudy,10,2013-09-08 02:15:00
10:35 PM,64.6,61.3,89,30.01,10.0,NNE,13.8,21.9,N/A,,Overcast,20,2013-09-08 02:35:00
10:55 PM,63.9,59.0,84,30.02,10.0,NNE,13.8,18.4,N/A,,Overcast,30,2013-09-08 02:55:00
11:15 PM,63.0,57.9,84,30.02,10.0,NNE,12.7,-,N/A,,Mostly Cloudy,30,2013-09-08 03:15:00
11:35 PM,61.9,57.2,85,30.03,10.0,NNE,11.5,-,N/A,,Scattered Clouds,20,2013-09-08 03:35:00
11:55 PM,61.0,57.2,87,30.04,10.0,NNE,8.1,-,N/A,,Clear,20,2013-09-08 03:55:00